Weather History for Phnom Penh, Cambodia

Change the Weather History Date:

Friday, October 12, 2012

  Actual Average Record
Temperature  
Mean Temperature 84 °F -  
Max Temperature 91 °F 84 °F 91 °F (1999)
Min Temperature 78 °F 76 °F 73 °F (2000)
Cooling Degree Days 20    
Growing Degree Days 34 (Base 50)    
Moisture  
Dew Point 73 °F    
Average Humidity 65    
Maximum Humidity 89    
Minimum Humidity 52    
Precipitation  
Precipitation 0.00 in - - ()
Sea Level Pressure  
Sea Level Pressure 29.82 in    
Wind  
Wind Speed 4 mph ()    
Max Wind Speed 12 mph    
Max Gust Speed -    
Visibility 5.8 miles    
Events      
Averages and records for this station are not official NWS values.
T = Trace of Precipitation, MM = Missing Value Source: Averaged Metar Reports

Daily Weather History Graph

Daily Weather History Graph

Search for Another Location

Airport:

Trip Planner

Search our weather history database for the weather conditions in past years. The results will help you decide how hot, cold, wet, or windy it might be!

Date:

Astronomy

Oct. 12, 2012 Rise Set
Actual Time 5:49 AM ICT 5:44 PM ICT
Civil Twilight 5:28 AM ICT 6:05 PM ICT
Nautical Twilight 5:03 AM ICT 6:30 PM ICT
Astronomical Twilight 4:39 AM ICT 6:54 PM ICT
Moon 2:33 AM ICT (10/12) 3:06 PM ICT (10/12)
Length of Visible Light 12h 36m
Length of Day
11h 54m
Waning Crescent, 14% of the Moon is Illuminated
Oct 12
Waning Crescent
Oct 15
New
Oct 22
First Quarter
Oct 30
Full
Nov 7
Last Quarter

Hourly Weather History & Observations

Time (ICT) Temp. Heat Index Dew Point Humidity Pressure Visibility Wind Dir Wind Speed Gust Speed Precip Events Conditions
6:00 AM 78.8 °F - 75.2 °F 89% 29.86 in 5.0 mi Calm Calm - N/A   Unknown
6:30 AM 80.6 °F 86.2 °F 75.2 °F 84% 29.86 in 5.0 mi North 2.3 mph - N/A   Unknown
7:00 AM 82.4 °F 88.2 °F 73.4 °F 74% 29.83 in 5.6 mi WNW 5.8 mph - N/A   Unknown
7:30 AM 82.4 °F 88.2 °F 73.4 °F 74% 29.83 in 5.6 mi WNW 2.3 mph - N/A   Unknown
8:00 AM 84.2 °F 92.3 °F 75.2 °F 74% 29.89 in 5.6 mi Variable 1.2 mph - N/A   Unknown
8:30 AM 86.0 °F 93.4 °F 73.4 °F 66% 29.89 in 6.2 mi Variable 1.2 mph - N/A   Partly Cloudy
9:00 AM 86.0 °F 93.4 °F 73.4 °F 66% 29.89 in 6.2 mi North 3.5 mph - N/A   Partly Cloudy
9:30 AM 86.0 °F 93.4 °F 73.4 °F 66% 29.89 in 6.2 mi NNE 6.9 mph - N/A   Partly Cloudy
10:00 AM - - - N/A% 29.89 in 6.2 mi WNW 9.2 mph - N/A   Partly Cloudy
11:00 AM 86.0 °F 91.8 °F 71.6 °F 62% 29.89 in 6.2 mi NNE 5.8 mph - N/A   Scattered Clouds
11:30 AM 89.6 °F 96.2 °F 71.6 °F 55% 29.89 in 6.2 mi NNE 9.2 mph - N/A   Scattered Clouds
12:00 PM 89.6 °F 94.7 °F 69.8 °F 52% 29.83 in - North - - N/A   Scattered Clouds
12:30 PM 89.6 °F 94.7 °F 69.8 °F 52% 29.83 in 6.2 mi North 6.9 mph - N/A   Scattered Clouds
1:00 PM 89.6 °F 96.2 °F 71.6 °F 55% 29.83 in 6.2 mi North 11.5 mph - N/A   Mostly Cloudy
1:30 PM 89.6 °F 96.2 °F 71.6 °F 55% 29.53 in 6.2 mi WNW 2.3 mph - N/A   Mostly Cloudy
2:00 PM 89.6 °F 96.2 °F 71.6 °F 55% 29.80 in 6.2 mi Variable 3.5 mph - N/A   Mostly Cloudy
2:30 PM 91.4 °F 98.4 °F 71.6 °F 52% 29.77 in 6.2 mi Variable 5.8 mph - N/A   Mostly Cloudy
3:00 PM 91.4 °F 100.1 °F 73.4 °F 55% 29.77 in 6.2 mi NNE 5.8 mph - N/A   Mostly Cloudy
3:30 PM 89.6 °F 96.2 °F 71.6 °F 55% 29.77 in 6.2 mi NNE 10.4 mph - N/A   Mostly Cloudy
4:00 PM 89.6 °F 98.2 °F 73.4 °F 59% 29.77 in 6.2 mi NNE 8.1 mph - N/A   Scattered Clouds
4:30 PM 87.8 °F 95.6 °F 73.4 °F 62% 29.77 in 6.2 mi NW 9.2 mph - N/A   Scattered Clouds
5:30 PM 87.8 °F 95.6 °F 73.4 °F 62% 29.77 in 6.2 mi NNW 5.8 mph - N/A   Scattered Clouds
6:00 PM 87.8 °F 95.6 °F 73.4 °F 62% 29.77 in 6.2 mi NNE 3.5 mph - N/A   Scattered Clouds
6:30 PM 86.0 °F 93.4 °F 73.4 °F 66% 29.77 in 5.6 mi Variable 3.5 mph - N/A   Partly Cloudy
7:00 PM 86.0 °F 93.4 °F 73.4 °F 66% 29.80 in 5.6 mi Variable 3.5 mph - N/A   Partly Cloudy
7:30 PM 86.0 °F 95.1 °F 75.2 °F 70% 29.80 in 5.6 mi Variable 3.5 mph - N/A   Partly Cloudy
8:00 PM 86.0 °F 95.1 °F 75.2 °F 70% 29.80 in 5.6 mi North 3.5 mph - N/A   Unknown
8:30 PM 86.0 °F 93.4 °F 73.4 °F 66% 29.83 in 5.6 mi North 3.5 mph - N/A   Unknown
9:00 PM 86.0 °F 95.1 °F 75.2 °F 70% 29.83 in 5.0 mi North 2.3 mph - N/A   Unknown
9:30 PM 86.0 °F 93.4 °F 73.4 °F 66% 29.83 in 5.0 mi Calm Calm - N/A   Unknown
10:00 PM 86.0 °F 95.1 °F 75.2 °F 70% 29.83 in 5.0 mi WSW 3.5 mph - N/A   Unknown
10:30 PM 86.0 °F 95.1 °F 75.2 °F 70% 29.83 in 5.0 mi WSW 3.5 mph - N/A   Unknown
11:00 PM 84.2 °F 92.3 °F 75.2 °F 74% 29.86 in 5.0 mi West 5.8 mph - N/A   Unknown